{"data":{"norad_id":52599,"epoch":"2026-05-25T02:56:34.672992Z","epoch_age_seconds":57708,"freshness":"FRESH","line1":"1 52599U 22052B   26145.12262353  .00001255  00000+0  96930-4 0  9996","line2":"2 52599  53.2148 296.1044 0001239  92.3013 267.8121 15.08834649223196","mean_motion":15.08834649,"eccentricity":0.0001239,"inclination_deg":53.2148,"raan_deg":296.1044,"arg_perigee_deg":92.3013,"mean_anomaly_deg":267.8121,"bstar":9.693e-5,"rev_number":22319,"period_min":95.437893141861,"perigee_km":538.90261747205,"apogee_km":540.61687228543,"semimajor_km":6917.8967448787,"source":"CELESTRAK","updated_at":"2026-05-25T13:38:17.196546Z"}}